Time,TemperatureF,DewpointF,PressureIn,WindDirection,WindDirectionDegrees,WindSpeedMPH,WindSpeedGustMPH,Humidity,HourlyPrecipIn,Conditions,Clouds,dailyrainin,SoftwareType,DateUTC
2013-04-06 00:00:00,57.0,38.0,29.76,South,190,9.0,15.0,49,0.00,CLR,,0.00,WeatherDisplay:10.37,2013-04-06 05:00:00,
2013-04-06 00:05:00,56.7,38.3,29.76,South,190,8.0,12.0,50,0.00,CLR,,0.00,WeatherDisplay:10.37,2013-04-06 05:05:00,
2013-04-06 00:10:00,56.8,38.3,29.75,South,187,8.0,16.0,50,0.00,CLR,,0.00,WeatherDisplay:10.37,2013-04-06 05:10:00,
2013-04-06 00:15:00,56.9,38.4,29.75,South,182,9.0,15.0,50,0.00,CLR,,0.00,WeatherDisplay:10.37,2013-04-06 05:15:00,
2013-04-06 00:20:00,56.8,38.3,29.75,South,188,10.0,20.0,50,0.00,CLR,,0.00,WeatherDisplay:10.37,2013-04-06 05:20:00,
2013-04-06 00:25:00,57.0,38.5,29.75,South,181,9.0,16.0,50,0.00,CLR,,0.00,WeatherDisplay:10.37,2013-04-06 05:25:00,
2013-04-06 00:30:00,57.3,38.8,29.75,South,187,12.0,18.0,50,0.00,CLR,,0.00,WeatherDisplay:10.37,2013-04-06 05:30:00,
2013-04-06 00:40:00,57.5,39.0,29.74,South,190,14.0,23.0,50,0.00,CLR,,0.00,WeatherDisplay:10.37,2013-04-06 05:40:00,
2013-04-06 00:45:00,57.6,38.5,29.74,SSW,195,13.0,21.0,49,0.00,CLR,,0.00,WeatherDisplay:10.37,2013-04-06 05:45:00,
2013-04-06 00:50:00,57.7,38.6,29.74,South,191,13.0,23.0,49,0.00,CLR,,0.00,WeatherDisplay:10.37,2013-04-06 05:50:00,
2013-04-06 01:00:00,57.7,38.7,29.74,SSW,193,13.0,21.0,49,0.00,CLR,,0.00,WeatherDisplay:10.37,2013-04-06 06:00:00,
2013-04-06 01:10:00,57.7,39.1,29.74,SSW,195,15.0,22.0,50,0.00,CLR,,0.00,WeatherDisplay:10.37,2013-04-06 06:10:00,
2013-04-06 01:15:00,57.5,39.0,29.73,SSW,192,15.0,22.0,50,0.00,CLR,,0.00,WeatherDisplay:10.37,2013-04-06 06:15:00,
2013-04-06 01:20:00,57.4,39.4,29.73,South,191,14.0,23.0,51,0.00,CLR,,0.00,WeatherDisplay:10.37,2013-04-06 06:20:00,
2013-04-06 01:25:00,57.4,39.4,29.73,South,188,13.0,21.0,51,0.00,CLR,,0.00,WeatherDisplay:10.37,2013-04-06 06:25:00,
2013-04-06 01:30:00,57.2,39.2,29.73,South,188,14.0,21.0,51,0.00,CLR,,0.00,WeatherDisplay:10.37,2013-04-06 06:30:00,
2013-04-06 01:35:00,56.8,39.3,29.72,South,188,13.0,20.0,52,0.00,CLR,,0.00,WeatherDisplay:10.37,2013-04-06 06:35:00,
2013-04-06 01:45:00,56.7,39.7,29.72,South,189,10.0,20.0,53,0.00,CLR,,0.00,WeatherDisplay:10.37,2013-04-06 06:45:00,
2013-04-06 01:50:00,56.7,39.7,29.72,South,190,14.0,24.0,53,0.00,CLR,,0.00,WeatherDisplay:10.37,2013-04-06 06:50:00,
2013-04-06 02:00:00,56.7,39.7,29.71,South,187,14.0,21.0,53,0.00,CLR,,0.00,WeatherDisplay:10.37,2013-04-06 07:00:00,
2013-04-06 02:05:00,56.7,39.8,29.72,SSW,193,10.0,21.0,53,0.00,CLR,,0.00,WeatherDisplay:10.37,2013-04-06 07:05:00,
2013-04-06 02:15:00,56.6,39.6,29.71,SSW,192,9.0,22.0,53,0.00,CLR,,0.00,WeatherDisplay:10.37,2013-04-06 07:15:00,
2013-04-06 02:20:00,56.4,40.0,29.71,SSW,192,10.0,24.0,54,0.00,CLR,,0.00,WeatherDisplay:10.37,2013-04-06 07:20:00,
2013-04-06 02:25:00,56.4,39.5,29.70,South,188,12.0,24.0,53,0.00,CLR,,0.00,WeatherDisplay:10.37,2013-04-06 07:25:00,
2013-04-06 02:30:00,56.1,39.7,29.70,South,183,12.0,22.0,54,0.00,CLR,,0.00,WeatherDisplay:10.37,2013-04-06 07:30:00,
2013-04-06 02:35:00,56.0,39.6,29.69,South,187,12.0,22.0,54,0.00,CLR,,0.00,WeatherDisplay:10.37,2013-04-06 07:35:00,
2013-04-06 02:45:00,56.0,39.5,29.68,South,191,13.0,21.0,54,0.00,CLR,,0.00,WeatherDisplay:10.37,2013-04-06 07:45:00,
2013-04-06 02:50:00,56.1,39.7,29.68,SSW,192,18.0,25.0,54,0.00,CLR,,0.00,WeatherDisplay:10.37,2013-04-06 07:50:00,
2013-04-06 02:55:00,56.3,39.3,29.68,SSW,195,13.0,27.0,53,0.00,CLR,,0.00,WeatherDisplay:10.37,2013-04-06 07:55:00,
2013-04-06 03:00:00,56.4,39.4,29.67,South,189,15.0,26.0,53,0.00,CLR,,0.00,WeatherDisplay:10.37,2013-04-06 08:00:00,
2013-04-06 03:05:00,56.2,39.7,29.67,South,190,16.0,25.0,54,0.00,CLR,,0.00,WeatherDisplay:10.37,2013-04-06 08:05:00,
2013-04-06 03:10:00,56.2,39.7,29.67,SSW,199,14.0,23.0,54,0.00,CLR,,0.00,WeatherDisplay:10.37,2013-04-06 08:10:00,
2013-04-06 03:15:00,56.1,39.6,29.67,SSW,192,15.0,24.0,54,0.00,CLR,,0.00,WeatherDisplay:10.37,2013-04-06 08:15:00,
2013-04-06 03:20:00,55.9,39.9,29.67,SSW,192,13.0,21.0,55,0.00,CLR,,0.00,WeatherDisplay:10.37,2013-04-06 08:20:00,
2013-04-06 03:30:00,55.7,39.8,29.66,SSW,195,13.0,24.0,55,0.00,CLR,,0.00,WeatherDisplay:10.37,2013-04-06 08:30:00,
2013-04-06 03:40:00,55.4,39.9,29.65,South,188,13.0,21.0,56,0.00,CLR,,0.00,WeatherDisplay:10.37,2013-04-06 08:40:00,
2013-04-06 03:50:00,55.2,40.2,29.66,South,189,15.0,20.0,57,0.00,CLR,,0.00,WeatherDisplay:10.37,2013-04-06 08:50:00,
2013-04-06 03:55:00,55.2,40.2,29.66,SSW,193,13.0,20.0,57,0.00,CLR,,0.00,WeatherDisplay:10.37,2013-04-06 08:55:00,
2013-04-06 04:00:00,55.0,40.4,29.65,SSW,193,13.0,20.0,58,0.00,CLR,,0.00,WeatherDisplay:10.37,2013-04-06 09:00:00,
2013-04-06 04:10:00,55.1,40.6,29.65,SSW,194,15.0,20.0,58,0.00,CLR,,0.00,WeatherDisplay:10.37,2013-04-06 09:10:00,
2013-04-06 04:15:00,55.2,40.6,29.65,SSW,194,15.0,21.0,58,0.00,CLR,,0.00,WeatherDisplay:10.37,2013-04-06 09:15:00,
2013-04-06 04:20:00,55.2,40.6,29.65,SSW,193,14.0,22.0,58,0.00,CLR,,0.00,WeatherDisplay:10.37,2013-04-06 09:20:00,
2013-04-06 04:25:00,55.1,40.5,29.64,South,183,12.0,21.0,58,0.00,CLR,,0.00,WeatherDisplay:10.37,2013-04-06 09:25:00,
2013-04-06 04:30:00,55.0,40.9,29.64,South,185,13.0,20.0,59,0.00,CLR,,0.00,WeatherDisplay:10.37,2013-04-06 09:30:00,
2013-04-06 04:40:00,55.2,41.1,29.64,SSW,194,14.0,21.0,59,0.00,CLR,,0.00,WeatherDisplay:10.37,2013-04-06 09:40:00,
2013-04-06 04:45:00,55.3,41.2,29.64,SSW,193,14.0,24.0,59,0.00,CLR,,0.00,WeatherDisplay:10.37,2013-04-06 09:45:00,
2013-04-06 04:50:00,55.3,41.2,29.65,South,189,13.0,27.0,59,0.00,CLR,,0.00,WeatherDisplay:10.37,2013-04-06 09:50:00,
2013-04-06 04:55:00,55.2,41.1,29.65,South,189,12.0,20.0,59,0.00,CLR,,0.00,WeatherDisplay:10.37,2013-04-06 09:55:00,
2013-04-06 05:00:00,55.2,41.5,29.65,South,191,10.0,17.0,60,0.00,CLR,,0.00,WeatherDisplay:10.37,2013-04-06 10:00:00,
2013-04-06 05:10:00,55.4,41.7,29.64,South,190,13.0,20.0,60,0.00,CLR,,0.00,WeatherDisplay:10.37,2013-04-06 10:10:00,
2013-04-06 05:15:00,55.2,41.5,29.65,South,191,10.0,17.0,60,0.00,CLR,,0.00,WeatherDisplay:10.37,2013-04-06 10:15:00,
2013-04-06 05:20:00,55.2,41.5,29.64,SSW,193,12.0,17.0,60,0.00,CLR,,0.00,WeatherDisplay:10.37,2013-04-06 10:20:00,
2013-04-06 05:30:00,55.1,41.9,29.65,SSW,200,12.0,20.0,61,0.00,CLR,,0.00,WeatherDisplay:10.37,2013-04-06 10:30:00,
2013-04-06 05:40:00,55.5,41.8,29.64,SSW,194,13.0,20.0,60,0.00,CLR,,0.00,WeatherDisplay:10.37,2013-04-06 10:40:00,
2013-04-06 05:45:00,55.4,41.8,29.64,SSW,194,12.0,16.0,60,0.00,CLR,,0.00,WeatherDisplay:10.37,2013-04-06 10:45:00,
2013-04-06 05:55:00,55.7,42.0,29.64,SSW,192,14.0,21.0,60,0.00,CLR,,0.00,WeatherDisplay:10.37,2013-04-06 10:55:00,
2013-04-06 06:00:00,55.8,42.1,29.64,SSW,200,9.0,20.0,60,0.00,CLR,,0.00,WeatherDisplay:10.37,2013-04-06 11:00:00,
2013-04-06 06:05:00,55.7,42.0,29.64,SSW,203,12.0,20.0,60,0.00,CLR,,0.00,WeatherDisplay:10.37,2013-04-06 11:05:00,
2013-04-06 06:15:00,55.9,42.2,29.65,SSW,195,10.0,20.0,60,0.00,CLR,,0.00,WeatherDisplay:10.37,2013-04-06 11:15:00,
2013-04-06 06:20:00,55.9,42.2,29.65,SSW,193,9.0,20.0,60,0.00,CLR,,0.00,WeatherDisplay:10.37,2013-04-06 11:20:00,
2013-04-06 06:30:00,55.9,42.2,29.65,SSW,198,9.0,18.0,60,0.00,CLR,,0.00,WeatherDisplay:10.37,2013-04-06 11:30:00,
2013-04-06 06:40:00,55.9,42.2,29.64,SSW,194,14.0,21.0,60,0.00,CLR,,0.00,WeatherDisplay:10.37,2013-04-06 11:40:00,
2013-04-06 06:45:00,55.9,42.2,29.63,South,188,13.0,20.0,60,0.00,CLR,,0.00,WeatherDisplay:10.37,2013-04-06 11:45:00,
2013-04-06 06:50:00,55.8,42.1,29.63,South,190,13.0,21.0,60,0.00,CLR,,0.00,WeatherDisplay:10.37,2013-04-06 11:50:00,
2013-04-06 06:55:00,55.7,42.4,29.62,SSW,196,12.0,18.0,61,0.00,CLR,,0.00,WeatherDisplay:10.37,2013-04-06 11:55:00,
2013-04-06 07:00:00,55.7,42.4,29.62,SSW,196,9.0,17.0,61,0.00,CLR,,0.00,WeatherDisplay:10.37,2013-04-06 12:00:00,
2013-04-06 07:10:00,55.6,42.3,29.62,South,187,10.0,17.0,61,0.00,CLR,,0.00,WeatherDisplay:10.37,2013-04-06 12:10:00,
2013-04-06 07:15:00,55.9,42.6,29.63,SSW,192,14.0,19.0,61,0.00,CLR,,0.00,WeatherDisplay:10.37,2013-04-06 12:15:00,
2013-04-06 07:20:00,55.9,42.7,29.63,SSW,194,12.0,20.0,61,0.00,CLR,,0.00,WeatherDisplay:10.37,2013-04-06 12:20:00,
2013-04-06 07:30:00,56.3,42.5,29.64,SSW,195,13.0,20.0,60,0.00,CLR,,0.00,WeatherDisplay:10.37,2013-04-06 12:30:00,
2013-04-06 07:40:00,56.4,42.6,29.64,SSW,196,13.0,21.0,60,0.00,CLR,,0.00,WeatherDisplay:10.37,2013-04-06 12:40:00,
2013-04-06 07:45:00,56.4,42.7,29.63,SSW,197,10.0,21.0,60,0.00,CLR,,0.00,WeatherDisplay:10.37,2013-04-06 12:45:00,
2013-04-06 07:55:00,56.5,42.7,29.62,SSW,192,12.0,23.0,60,0.00,CLR,,0.00,WeatherDisplay:10.37,2013-04-06 12:55:00,
2013-04-06 08:00:00,56.5,42.8,29.62,SSW,193,12.0,22.0,60,0.00,CLR,,0.00,WeatherDisplay:10.37,2013-04-06 13:00:00,
2013-04-06 08:10:00,56.7,42.9,29.62,SSW,194,14.0,20.0,60,0.00,CLR,,0.00,WeatherDisplay:10.37,2013-04-06 13:10:00,
2013-04-06 08:15:00,56.7,42.9,29.62,SSW,194,13.0,20.0,60,0.00,CLR,,0.00,WeatherDisplay:10.37,2013-04-06 13:15:00,
2013-04-06 08:20:00,56.7,43.4,29.62,SSW,194,10.0,20.0,61,0.00,CLR,,0.00,WeatherDisplay:10.37,2013-04-06 13:20:00,
2013-04-06 08:30:00,56.7,43.4,29.62,SSW,197,12.0,18.0,61,0.00,CLR,,0.00,WeatherDisplay:10.37,2013-04-06 13:30:00,
2013-04-06 08:40:00,56.9,44.0,29.62,SSW,193,12.0,22.0,62,0.00,CLR,,0.00,WeatherDisplay:10.37,2013-04-06 13:40:00,
2013-04-06 08:45:00,57.0,44.1,29.61,SSW,195,12.0,23.0,62,0.00,CLR,,0.00,WeatherDisplay:10.37,2013-04-06 13:45:00,
2013-04-06 08:55:00,57.1,44.2,29.61,SSW,193,12.0,21.0,62,0.00,CLR,,0.00,WeatherDisplay:10.37,2013-04-06 13:55:00,
2013-04-06 09:05:00,57.1,44.2,29.60,SSW,195,15.0,21.0,62,0.00,CLR,,0.00,WeatherDisplay:10.37,2013-04-06 14:05:00,
2013-04-06 09:10:00,57.0,44.1,29.61,South,189,12.0,24.0,62,0.00,CLR,,0.00,WeatherDisplay:10.37,2013-04-06 14:10:00,
2013-04-06 09:15:00,57.0,44.1,29.61,South,185,13.0,24.0,62,0.00,CLR,,0.00,WeatherDisplay:10.37,2013-04-06 14:15:00,
2013-04-06 09:20:00,57.1,44.6,29.61,South,188,10.0,20.0,63,0.00,CLR,,0.00,WeatherDisplay:10.37,2013-04-06 14:20:00,
2013-04-06 09:25:00,57.6,44.7,29.60,SSW,197,15.0,26.0,62,0.00,CLR,,0.00,WeatherDisplay:10.37,2013-04-06 14:25:00,
2013-04-06 09:30:00,57.8,44.4,29.60,SSW,197,15.0,25.0,61,0.00,CLR,,0.00,WeatherDisplay:10.37,2013-04-06 14:30:00,
2013-04-06 09:40:00,58.1,44.7,29.60,SSW,199,14.0,21.0,61,0.00,CLR,,0.00,WeatherDisplay:10.37,2013-04-06 14:40:00,
2013-04-06 09:45:00,58.2,45.3,29.60,SSW,197,12.0,21.0,62,0.00,CLR,,0.00,WeatherDisplay:10.37,2013-04-06 14:45:00,
2013-04-06 09:50:00,58.5,45.1,29.60,SSW,203,15.0,20.0,61,0.00,CLR,,0.00,WeatherDisplay:10.37,2013-04-06 14:50:00,
2013-04-06 09:55:00,58.9,45.4,29.60,SSW,204,16.0,22.0,61,0.00,CLR,,0.00,WeatherDisplay:10.37,2013-04-06 14:55:00,
2013-04-06 10:00:00,59.9,45.5,29.60,SSW,207,18.0,25.0,59,0.00,CLR,,0.00,WeatherDisplay:10.37,2013-04-06 15:00:00,
2013-04-06 10:10:00,59.0,45.1,29.60,SSW,207,16.0,27.0,60,0.00,CLR,,0.00,WeatherDisplay:10.37,2013-04-06 15:10:00,
2013-04-06 10:20:00,59.8,45.9,29.59,SSW,205,14.0,22.0,60,0.00,CLR,,0.00,WeatherDisplay:10.37,2013-04-06 15:20:00,
2013-04-06 10:30:00,61.2,45.9,29.59,SSW,210,17.0,24.0,57,0.00,CLR,,0.00,WeatherDisplay:10.37,2013-04-06 15:30:00,
2013-04-06 10:40:00,62.2,46.7,29.60,SSW,208,14.0,22.0,57,0.00,CLR,,0.00,WeatherDisplay:10.37,2013-04-06 15:40:00,
2013-04-06 10:45:00,62.8,46.3,29.59,SW,218,16.0,26.0,55,0.00,CLR,,0.00,WeatherDisplay:10.37,2013-04-06 15:45:00,
2013-04-06 10:55:00,63.2,46.7,29.59,SW,215,13.0,25.0,55,0.00,CLR,,0.00,WeatherDisplay:10.37,2013-04-06 15:55:00,
2013-04-06 11:00:00,63.5,46.6,29.59,SSW,212,13.0,25.0,54,0.00,CLR,,0.00,WeatherDisplay:10.37,2013-04-06 16:00:00,
2013-04-06 11:10:00,64.6,46.5,29.59,SW,216,13.0,23.0,52,0.00,CLR,,0.00,WeatherDisplay:10.37,2013-04-06 16:10:00,
2013-04-06 11:20:00,64.2,45.7,29.60,SW,217,16.0,28.0,51,0.00,CLR,,0.00,WeatherDisplay:10.37,2013-04-06 16:20:00,
2013-04-06 11:25:00,63.9,45.9,29.59,SW,224,18.0,27.0,52,0.00,CLR,,0.00,WeatherDisplay:10.37,2013-04-06 16:25:00,
2013-04-06 11:30:00,65.2,46.6,29.59,SW,225,16.0,25.0,51,0.00,CLR,,0.00,WeatherDisplay:10.37,2013-04-06 16:30:00,
2013-04-06 11:40:00,65.7,46.6,29.59,SW,217,16.0,25.0,50,0.00,CLR,,0.00,WeatherDisplay:10.37,2013-04-06 16:40:00,
2013-04-06 11:50:00,65.8,46.6,29.59,SW,220,14.0,22.0,50,0.00,CLR,,0.00,WeatherDisplay:10.37,2013-04-06 16:50:00,
2013-04-06 11:55:00,65.8,46.1,29.59,SW,229,13.0,24.0,49,0.00,CLR,,0.00,WeatherDisplay:10.37,2013-04-06 16:55:00,
2013-04-06 12:00:00,66.0,46.2,29.59,SW,229,14.0,20.0,49,0.00,CLR,,0.00,WeatherDisplay:10.37,2013-04-06 17:00:00,
2013-04-06 12:10:00,67.1,47.3,29.59,SW,223,12.0,21.0,49,0.00,CLR,,0.00,WeatherDisplay:10.37,2013-04-06 17:10:00,
2013-04-06 12:20:00,66.5,45.7,29.58,SW,219,15.0,21.0,47,0.00,CLR,,0.00,WeatherDisplay:10.37,2013-04-06 17:20:00,
2013-04-06 12:25:00,66.2,46.4,29.58,SW,227,10.0,20.0,49,0.00,CLR,,0.00,WeatherDisplay:10.37,2013-04-06 17:25:00,
2013-04-06 12:30:00,67.4,47.0,29.58,SW,231,14.0,22.0,48,0.00,CLR,,0.00,WeatherDisplay:10.37,2013-04-06 17:30:00,
2013-04-06 12:40:00,67.1,46.2,29.57,SW,219,14.0,20.0,47,0.00,CLR,,0.00,WeatherDisplay:10.37,2013-04-06 17:40:00,
2013-04-06 12:45:00,68.5,47.5,29.57,SSW,203,13.0,22.0,47,0.00,CLR,,0.00,WeatherDisplay:10.37,2013-04-06 17:45:00,
2013-04-06 12:55:00,67.1,46.7,29.58,SSW,211,13.0,24.0,48,0.00,CLR,,0.00,WeatherDisplay:10.37,2013-04-06 17:55:00,
2013-04-06 13:00:00,67.0,46.7,29.57,SW,219,13.0,23.0,48,0.00,CLR,,0.00,WeatherDisplay:10.37,2013-04-06 18:00:00,
2013-04-06 13:10:00,68.0,46.4,29.57,SW,214,14.0,21.0,46,0.00,CLR,,0.00,WeatherDisplay:10.37,2013-04-06 18:10:00,
2013-04-06 13:15:00,68.5,46.9,29.57,SW,225,12.0,20.0,46,0.00,CLR,,0.00,WeatherDisplay:10.37,2013-04-06 18:15:00,
2013-04-06 13:25:00,69.8,46.3,29.57,SW,223,15.0,22.0,43,0.00,CLR,,0.00,WeatherDisplay:10.37,2013-04-06 18:25:00,
2013-04-06 13:30:00,70.4,46.9,29.57,SW,228,10.0,17.0,43,0.00,CLR,,0.00,WeatherDisplay:10.37,2013-04-06 18:30:00,
2013-04-06 13:40:00,71.1,46.2,29.58,WSW,256,7.0,17.0,41,0.00,CLR,,0.00,WeatherDisplay:10.37,2013-04-06 18:40:00,
2013-04-06 13:45:00,71.5,46.5,29.57,West,262,9.0,14.0,41,0.00,CLR,,0.00,WeatherDisplay:10.37,2013-04-06 18:45:00,
2013-04-06 13:50:00,71.6,46.7,29.57,WSW,258,7.0,16.0,41,0.00,CLR,,0.00,WeatherDisplay:10.37,2013-04-06 18:50:00,
2013-04-06 13:55:00,72.3,46.6,29.57,WSW,247,8.0,18.0,40,0.00,CLR,,0.00,WeatherDisplay:10.37,2013-04-06 18:55:00,
2013-04-06 14:00:00,72.0,47.0,29.57,West,261,7.0,15.0,41,0.00,CLR,,0.00,WeatherDisplay:10.37,2013-04-06 19:00:00,
2013-04-06 14:10:00,71.9,46.9,29.57,West,264,10.0,20.0,41,0.00,CLR,,0.00,WeatherDisplay:10.37,2013-04-06 19:10:00,
2013-04-06 14:15:00,71.5,45.2,29.57,West,269,10.0,16.0,39,0.00,CLR,,0.00,WeatherDisplay:10.37,2013-04-06 19:15:00,
2013-04-06 14:25:00,71.4,45.8,29.57,West,269,8.0,16.0,40,0.00,CLR,,0.00,WeatherDisplay:10.37,2013-04-06 19:25:00,
2013-04-06 14:30:00,71.6,46.0,29.57,West,274,10.0,16.0,40,0.00,CLR,,0.00,WeatherDisplay:10.37,2013-04-06 19:30:00,
2013-04-06 14:40:00,71.7,46.1,29.57,West,267,9.0,15.0,40,0.00,CLR,,0.00,WeatherDisplay:10.37,2013-04-06 19:40:00,
2013-04-06 14:45:00,71.9,45.6,29.57,West,267,7.0,17.0,39,0.00,CLR,,0.00,WeatherDisplay:10.37,2013-04-06 19:45:00,
2013-04-06 14:55:00,72.9,45.8,29.57,West,266,8.0,12.0,38,0.00,CLR,,0.00,WeatherDisplay:10.37,2013-04-06 19:55:00,
2013-04-06 15:00:00,72.8,45.7,29.56,West,279,7.0,13.0,38,0.00,CLR,,0.00,WeatherDisplay:10.37,2013-04-06 20:00:00,
2013-04-06 15:10:00,73.6,44.3,29.56,West,270,8.0,15.0,35,0.00,CLR,,0.00,WeatherDisplay:10.37,2013-04-06 20:10:00,
2013-04-06 15:15:00,73.2,43.9,29.56,WNW,284,9.0,13.0,35,0.00,CLR,,0.00,WeatherDisplay:10.37,2013-04-06 20:15:00,
2013-04-06 15:25:00,73.6,41.9,29.56,West,281,9.0,14.0,32,0.00,CLR,,0.00,WeatherDisplay:10.37,2013-04-06 20:25:00,
2013-04-06 15:30:00,73.1,40.7,29.56,WNW,283,10.0,18.0,31,0.00,CLR,,0.00,WeatherDisplay:10.37,2013-04-06 20:30:00,
2013-04-06 15:35:00,73.3,41.6,29.56,West,280,10.0,16.0,32,0.00,CLR,,0.00,WeatherDisplay:10.37,2013-04-06 20:35:00,
2013-04-06 15:40:00,73.9,40.5,29.57,WNW,285,12.0,16.0,30,0.00,CLR,,0.00,WeatherDisplay:10.37,2013-04-06 20:40:00,
2013-04-06 15:45:00,73.7,39.4,29.57,West,281,7.0,14.0,29,0.00,CLR,,0.00,WeatherDisplay:10.37,2013-04-06 20:45:00,
2013-04-06 15:50:00,74.3,40.0,29.57,West,277,9.0,14.0,29,0.00,CLR,,0.00,WeatherDisplay:10.37,2013-04-06 20:50:00,
2013-04-06 16:00:00,73.6,38.5,29.57,WNW,292,13.0,17.0,28,0.00,CLR,,0.00,WeatherDisplay:10.37,2013-04-06 21:00:00,
2013-04-06 16:10:00,74.1,38.9,29.57,West,280,9.0,16.0,28,0.00,CLR,,0.00,WeatherDisplay:10.37,2013-04-06 21:10:00,
2013-04-06 16:15:00,73.8,38.7,29.57,WNW,288,8.0,13.0,28,0.00,CLR,,0.00,WeatherDisplay:10.37,2013-04-06 21:15:00,
2013-04-06 16:20:00,74.3,39.0,29.58,WNW,283,7.0,15.0,28,0.00,CLR,,0.00,WeatherDisplay:10.37,2013-04-06 21:20:00,
2013-04-06 16:25:00,74.3,38.2,29.58,WNW,288,14.0,18.0,27,0.00,CLR,,0.00,WeatherDisplay:10.37,2013-04-06 21:25:00,
2013-04-06 16:30:00,73.4,38.3,29.58,WNW,291,10.0,16.0,28,0.00,CLR,,0.00,WeatherDisplay:10.37,2013-04-06 21:30:00,
2013-04-06 16:40:00,73.3,38.2,29.58,WNW,286,9.0,14.0,28,0.00,CLR,,0.00,WeatherDisplay:10.37,2013-04-06 21:40:00,
2013-04-06 16:45:00,73.1,38.0,29.58,WNW,290,14.0,20.0,28,0.00,CLR,,0.00,WeatherDisplay:10.37,2013-04-06 21:45:00,
2013-04-06 16:55:00,73.3,40.0,29.59,WNW,287,8.0,21.0,30,0.00,CLR,,0.00,WeatherDisplay:10.37,2013-04-06 21:55:00,
2013-04-06 17:00:00,73.0,39.7,29.59,WNW,295,14.0,18.0,30,0.00,CLR,,0.00,WeatherDisplay:10.37,2013-04-06 22:00:00,
2013-04-06 17:05:00,72.8,39.5,29.59,WNW,300,12.0,16.0,30,0.00,FEW,,0.00,WeatherDisplay:10.37,2013-04-06 22:05:00,
2013-04-06 17:10:00,72.9,41.3,29.59,WNW,299,10.0,17.0,32,0.00,FEW,,0.00,WeatherDisplay:10.37,2013-04-06 22:10:00,
2013-04-06 17:15:00,73.2,39.9,29.59,WNW,296,8.0,15.0,30,0.00,FEW,,0.00,WeatherDisplay:10.37,2013-04-06 22:15:00,
2013-04-06 17:20:00,73.0,40.5,29.60,WNW,302,9.0,14.0,31,0.00,FEW,,0.00,WeatherDisplay:10.37,2013-04-06 22:20:00,
2013-04-06 17:30:00,72.2,41.4,29.60,WNW,301,8.0,12.0,33,0.00,FEW,,0.00,WeatherDisplay:10.37,2013-04-06 22:30:00,
2013-04-06 17:40:00,71.9,41.2,29.60,WNW,292,9.0,14.0,33,0.00,FEW,,0.00,WeatherDisplay:10.37,2013-04-06 22:40:00,
2013-04-06 17:45:00,71.5,41.7,29.61,WNW,294,10.0,16.0,34,0.00,FEW,,0.00,WeatherDisplay:10.37,2013-04-06 22:45:00,
2013-04-06 17:50:00,71.0,42.0,29.61,WNW,303,8.0,14.0,35,0.00,FEW,,0.00,WeatherDisplay:10.37,2013-04-06 22:50:00,
2013-04-06 17:55:00,71.3,42.2,29.61,NW,308,7.0,15.0,35,0.00,FEW,,0.00,WeatherDisplay:10.37,2013-04-06 22:55:00,
2013-04-06 18:00:00,71.7,41.8,29.61,NW,306,9.0,13.0,34,0.00,FEW,,0.00,WeatherDisplay:10.37,2013-04-06 23:00:00,
2013-04-06 18:10:00,71.4,42.3,29.62,NW,315,9.0,14.0,35,0.00,SCT,,0.00,WeatherDisplay:10.37,2013-04-06 23:10:00,
2013-04-06 18:15:00,70.6,41.6,29.62,NW,310,12.0,17.0,35,0.00,SCT,,0.00,WeatherDisplay:10.37,2013-04-06 23:15:00,
2013-04-06 18:25:00,70.3,42.0,29.62,WNW,299,8.0,12.0,36,0.00,SCT,,0.00,WeatherDisplay:10.37,2013-04-06 23:25:00,
2013-04-06 18:30:00,70.4,42.1,29.63,WNW,297,7.0,12.0,36,0.00,SCT,,0.00,WeatherDisplay:10.37,2013-04-06 23:30:00,
2013-04-06 18:40:00,70.0,41.8,29.63,NW,304,9.0,14.0,36,0.00,SCT,,0.00,WeatherDisplay:10.37,2013-04-06 23:40:00,
2013-04-06 18:45:00,70.1,41.2,29.63,WNW,302,9.0,13.0,35,0.00,SCT,,0.00,WeatherDisplay:10.37,2013-04-06 23:45:00,
2013-04-06 18:55:00,69.4,42.0,29.64,NW,310,7.0,12.0,37,0.00,SCT,,0.00,WeatherDisplay:10.37,2013-04-06 23:55:00,
2013-04-06 19:00:00,69.1,41.7,29.64,NW,318,8.0,12.0,37,0.00,SCT,,0.00,WeatherDisplay:10.37,2013-04-07 00:00:00,
2013-04-06 19:10:00,68.8,41.5,29.64,NW,306,10.0,13.0,37,0.00,CLR,,0.00,WeatherDisplay:10.37,2013-04-07 00:10:00,
2013-04-06 19:15:00,68.7,40.6,29.64,WNW,302,9.0,17.0,36,0.00,CLR,,0.00,WeatherDisplay:10.37,2013-04-07 00:15:00,
2013-04-06 19:20:00,68.2,40.9,29.65,WNW,303,8.0,12.0,37,0.00,CLR,,0.00,WeatherDisplay:10.37,2013-04-07 00:20:00,
2013-04-06 19:25:00,67.9,41.3,29.65,WNW,301,7.0,12.0,38,0.00,CLR,,0.00,WeatherDisplay:10.37,2013-04-07 00:25:00,
2013-04-06 19:30:00,67.5,41.0,29.65,WNW,299,6.0,10.0,38,0.00,CLR,,0.00,WeatherDisplay:10.37,2013-04-07 00:30:00,
2013-04-06 19:35:00,67.1,41.3,29.65,WNW,298,6.0,10.0,39,0.00,CLR,,0.00,WeatherDisplay:10.37,2013-04-07 00:35:00,
2013-04-06 19:40:00,66.6,41.5,29.66,WNW,302,5.0,7.0,40,0.00,CLR,,0.00,WeatherDisplay:10.37,2013-04-07 00:40:00,
2013-04-06 19:45:00,66.2,41.1,29.66,WNW,299,5.0,6.0,40,0.00,CLR,,0.00,WeatherDisplay:10.37,2013-04-07 00:45:00,
2013-04-06 19:50:00,65.8,41.4,29.66,WNW,298,3.0,6.0,41,0.00,CLR,,0.00,WeatherDisplay:10.37,2013-04-07 00:50:00,
2013-04-06 19:55:00,65.4,41.7,29.66,WNW,299,3.0,6.0,42,0.00,CLR,,0.00,WeatherDisplay:10.37,2013-04-07 00:55:00,
2013-04-06 20:00:00,64.9,41.2,29.66,WNW,301,5.0,7.0,42,0.00,CLR,,0.00,WeatherDisplay:10.37,2013-04-07 01:00:00,
2013-04-06 20:10:00,65.0,40.7,29.67,WNW,300,6.0,7.0,41,0.00,CLR,,0.00,WeatherDisplay:10.37,2013-04-07 01:10:00,
2013-04-06 20:15:00,64.8,40.5,29.67,WNW,302,5.0,7.0,41,0.00,CLR,,0.00,WeatherDisplay:10.37,2013-04-07 01:15:00,
2013-04-06 20:20:00,64.7,40.5,29.67,WNW,301,6.0,8.0,41,0.00,CLR,,0.00,WeatherDisplay:10.37,2013-04-07 01:20:00,
2013-04-06 20:25:00,64.5,40.8,29.67,WNW,303,5.0,7.0,42,0.00,CLR,,0.00,WeatherDisplay:10.37,2013-04-07 01:25:00,
2013-04-06 20:30:00,64.2,40.6,29.67,NW,305,3.0,6.0,42,0.00,CLR,,0.00,WeatherDisplay:10.37,2013-04-07 01:30:00,
2013-04-06 20:40:00,64.0,41.0,29.67,WNW,297,3.0,6.0,43,0.00,CLR,,0.00,WeatherDisplay:10.37,2013-04-07 01:40:00,
2013-04-06 20:50:00,63.6,40.0,29.67,WNW,301,2.0,4.0,42,0.00,CLR,,0.00,WeatherDisplay:10.37,2013-04-07 01:50:00,
2013-04-06 20:55:00,63.4,40.5,29.68,WNW,301,3.0,4.0,43,0.00,CLR,,0.00,WeatherDisplay:10.37,2013-04-07 01:55:00,
2013-04-06 21:00:00,63.2,40.3,29.68,WNW,301,1.0,4.0,43,0.00,CLR,,0.00,WeatherDisplay:10.37,2013-04-07 02:00:00,
2013-04-06 21:10:00,62.9,40.0,29.69,WNW,301,1.0,2.0,43,0.00,CLR,,0.00,WeatherDisplay:10.37,2013-04-07 02:10:00,
2013-04-06 21:15:00,62.7,39.9,29.69,WNW,301,0.0,2.0,43,0.00,CLR,,0.00,WeatherDisplay:10.37,2013-04-07 02:15:00,
2013-04-06 21:20:00,62.6,39.8,29.69,WNW,301,0.0,2.0,43,0.00,CLR,,0.00,WeatherDisplay:10.37,2013-04-07 02:20:00,
2013-04-06 21:25:00,62.6,39.7,29.69,WNW,301,1.0,2.0,43,0.00,CLR,,0.00,WeatherDisplay:10.37,2013-04-07 02:25:00,
2013-04-06 21:30:00,62.6,39.7,29.69,WNW,301,1.0,3.0,43,0.00,CLR,,0.00,WeatherDisplay:10.37,2013-04-07 02:30:00,
2013-04-06 21:35:00,62.7,39.9,29.69,WNW,301,1.0,2.0,43,0.00,CLR,,0.00,WeatherDisplay:10.37,2013-04-07 02:35:00,
2013-04-06 21:45:00,63.0,39.5,29.69,WNW,301,1.0,2.0,42,0.00,CLR,,0.00,WeatherDisplay:10.37,2013-04-07 02:45:00,
2013-04-06 21:50:00,63.1,39.6,29.70,WNW,301,2.0,3.0,42,0.00,CLR,,0.00,WeatherDisplay:10.37,2013-04-07 02:50:00,
2013-04-06 21:55:00,63.0,39.5,29.70,WNW,301,1.0,3.0,42,0.00,CLR,,0.00,WeatherDisplay:10.37,2013-04-07 02:55:00,
2013-04-06 22:00:00,62.8,40.0,29.70,WNW,301,1.0,3.0,43,0.00,CLR,,0.00,WeatherDisplay:10.37,2013-04-07 03:00:00,
2013-04-06 22:10:00,62.1,39.9,29.71,WNW,301,1.0,2.0,44,0.00,CLR,,0.00,WeatherDisplay:10.37,2013-04-07 03:10:00,
2013-04-06 22:15:00,61.7,39.5,29.71,WNW,301,2.0,3.0,44,0.00,CLR,,0.00,WeatherDisplay:10.37,2013-04-07 03:15:00,
2013-04-06 22:20:00,61.7,39.5,29.71,WNW,301,0.0,3.0,44,0.00,CLR,,0.00,WeatherDisplay:10.37,2013-04-07 03:20:00,
2013-04-06 22:25:00,61.7,39.5,29.71,WNW,301,0.0,0.0,44,0.00,CLR,,0.00,WeatherDisplay:10.37,2013-04-07 03:25:00,
2013-04-06 22:30:00,61.5,39.3,29.71,WNW,301,0.0,0.0,44,0.00,CLR,,0.00,WeatherDisplay:10.37,2013-04-07 03:30:00,
2013-04-06 22:40:00,61.1,39.6,29.70,WNW,301,0.0,1.0,45,0.00,CLR,,0.00,WeatherDisplay:10.37,2013-04-07 03:40:00,
2013-04-06 22:50:00,61.2,39.6,29.71,WNW,301,1.0,3.0,45,0.00,CLR,,0.00,WeatherDisplay:10.37,2013-04-07 03:50:00,
2013-04-06 23:00:00,61.6,39.5,29.71,WNW,301,2.0,3.0,44,0.00,CLR,,0.00,WeatherDisplay:10.37,2013-04-07 04:00:00,
2013-04-06 23:05:00,61.9,39.2,29.71,WNW,301,1.0,3.0,43,0.00,CLR,,0.00,WeatherDisplay:10.37,2013-04-07 04:05:00,
2013-04-06 23:10:00,61.9,39.1,29.71,WNW,301,2.0,4.0,43,0.00,CLR,,0.00,WeatherDisplay:10.37,2013-04-07 04:10:00,
2013-04-06 23:15:00,61.8,39.0,29.72,WNW,301,2.0,4.0,43,0.00,CLR,,0.00,WeatherDisplay:10.37,2013-04-07 04:15:00,
2013-04-06 23:20:00,61.7,39.5,29.71,WNW,301,2.0,3.0,44,0.00,CLR,,0.00,WeatherDisplay:10.37,2013-04-07 04:20:00,
2013-04-06 23:25:00,61.2,39.1,29.71,WNW,301,1.0,3.0,44,0.00,CLR,,0.00,WeatherDisplay:10.37,2013-04-07 04:25:00,
2013-04-06 23:30:00,61.0,39.5,29.71,WNW,301,1.0,2.0,45,0.00,CLR,,0.00,WeatherDisplay:10.37,2013-04-07 04:30:00,
2013-04-06 23:40:00,61.3,39.2,29.71,WNW,301,1.0,2.0,44,0.00,CLR,,0.00,WeatherDisplay:10.37,2013-04-07 04:40:00,
2013-04-06 23:45:00,60.9,39.4,29.71,WNW,301,2.0,3.0,45,0.00,CLR,,0.00,WeatherDisplay:10.37,2013-04-07 04:45:00,
2013-04-06 23:50:00,60.5,39.0,29.71,WNW,301,1.0,3.0,45,0.00,CLR,,0.00,WeatherDisplay:10.37,2013-04-07 04:50:00,